KE9LZ Weather Reports


Display with metric or nautical units.
time (UTC)temp
F
wind
direction
speed
MPH
gust
MPH
rain 1hr
in
rain 24hr
in
rain mn
in
humidity
%
barometer
mb
20260510154002 53 279 9.0 21.0 0.00 0.00 0.00 42 1023.1
20260510152003 54 258 7.0 21.0 0.00 0.00 0.00 43 1023.3
20260510151002 53 212 5.0 18.0 0.00 0.00 0.00 45 1023.1
20260510150003 52 274 7.0 13.0 0.00 0.00 0.00 48 1023.4
20260510144003 50 258 9.0 15.0 0.00 0.00 0.00 51 1023.4
20260510142003 49 189 5.0 9.0 0.00 0.00 0.00 52 1023.4
20260510140003 48 189 2.0 7.0 0.00 0.00 0.00 55 1023.1
20260510135003 48 287 3.0 7.0 0.00 0.00 0.00 56 1022.9
20260510131002 47 207 5.0 10.0 0.00 0.00 0.00 57 1022.8
20260510125003 45 169 3.0 7.0 0.00 0.00 0.00 60 1022.8
20260510124003 44 172 4.0 6.0 0.00 0.00 0.00 62 1022.6
20260510123003 43 154 4.0 8.0 0.00 0.00 0.00 65 1022.2
20260510122003 42 162 5.0 6.0 0.00 0.00 0.00 64 1022.4
20260510121003 42 145 4.0 6.0 0.00 0.00 0.00 65 1022.4
20260510120003 41 174 3.0 6.0 0.00 0.00 0.00 67 1022.6
20260510115003 39 167 3.0 5.0 0.00 0.00 0.00 69 1022.3
20260510113003 38 180 3.0 6.0 0.00 0.00 0.00 70 1022.0
20260510112003 38 147 3.0 6.0 0.00 0.00 0.00 72 1021.9
20260510110003 37 154 3.0 6.0 0.00 0.00 0.00 72 1021.6
20260510105002 37 152 2.0 9.0 0.00 0.00 0.00 71 1021.5
20260510104003 37 173 2.0 5.0 0.00 0.00 0.00 73 1021.3
20260510103002 36 139 2.0 3.0 0.00 0.00 0.00 74 1021.3
20260510102002 36 132 1.0 5.0 0.00 0.00 0.00 74 1021.1
20260510101003 36 113 2.0 3.0 0.00 0.00 0.00 74 1020.9
20260510100003 37 153 3.0 5.0 0.00 0.00 0.00 73 1020.9
20260510095003 37 118 2.0 5.0 0.00 0.00 0.00 72 1020.7
20260510094002 37 155 2.0 7.0 0.00 0.00 0.00 72 1020.6
20260510093003 37 134 3.0 3.0 0.00 0.00 0.00 72 1020.5
20260510090003 38 146 2.0 3.0 0.00 0.00 0.00 70 1020.2
20260510085003 38 147 1.0 3.0 0.00 0.00 0.00 69 1020.2
20260510084003 38 134 1.0 5.0 0.00 0.00 0.00 69 1019.8
20260510082003 38 152 3.0 5.0 0.00 0.00 0.00 70 1019.4
20260510081003 38 152 2.0 3.0 0.00 0.00 0.00 70 1019.5
20260510074003 39 143 2.0 2.0 0.00 0.00 0.00 67 1019.1
20260510073002 40 149 2.0 2.0 0.00 0.00 0.00 64 1019.1
20260510072003 41 107 0.0 2.0 0.00 0.00 0.00 62 1019.0
20260510070003 40 131 1.0 2.0 0.00 0.00 0.00 61 1018.7
20260510065003 40 129 2.0 3.0 0.00 0.00 0.00 60 1018.5
20260510064003 41 108 3.0 3.0 0.00 0.00 0.00 56 1018.6
20260510063003 41 132 2.0 3.0 0.00 0.00 0.00 55 1018.6
20260510062003 42 126 0.0 2.0 0.00 0.00 0.00 51 1018.5
20260510061003 43 106 1.0 3.0 0.00 0.00 0.00 51 1018.5
20260510055003 44 23 2.0 3.0 0.00 0.00 0.00 45 1018.3
20260510054003 45 39 2.0 8.0 0.00 0.00 0.00 44 1018.3
20260510053003 45 36 3.0 7.0 0.00 0.00 0.00 44 1018.1
20260510052002 45 42 2.0 5.0 0.00 0.00 0.00 45 1018.1
20260510051003 45 98 2.0 5.0 0.00 0.00 0.00 44 1017.6
20260510050002 46 49 3.0 7.0 0.00 0.00 0.00 43 1017.6
20260510045003 46 68 2.0 7.0 0.00 0.00 0.00 44 1017.3
20260510044003 46 34 3.0 6.0 0.00 0.00 0.00 43 1017.6
20260510043002 46 41 3.0 5.0 0.00 0.00 0.00 44 1017.1
20260510042002 47 85 3.0 6.0 0.00 0.00 0.00 42 1017.0
20260510040003 48 40 3.0 7.0 0.00 0.00 0.00 40 1016.9
20260510035003 48 29 3.0 7.0 0.00 0.00 0.00 39 1016.7
20260510034002 49 50 5.0 8.0 0.00 0.00 0.00 38 1016.8
20260510033003 49 36 3.0 9.0 0.00 0.00 0.00 39 1016.6
20260510032003 49 45 6.0 9.0 0.00 0.00 0.00 38 1016.5
20260510031003 49 36 5.0 7.0 0.00 0.00 0.00 38 1016.4
20260510030003 50 40 5.0 14.0 0.00 0.00 0.00 38 1016.5
20260510025003 50 358 10.0 15.0 0.00 0.00 0.00 37 1016.3
20260510024003 50 25 5.0 14.0 0.00 0.00 0.00 39 1016.3
20260510023002 51 17 5.0 12.0 0.00 0.00 0.00 39 1016.1
20260510022003 51 13 10.0 20.0 0.00 0.00 0.00 38 1016.2
20260510021003 51 357 9.0 20.0 0.00 0.00 0.00 38 1015.8
20260510020003 52 348 8.0 17.0 0.00 0.00 0.00 39 1015.5
20260510015003 53 313 8.0 22.0 0.00 0.00 0.00 38 1015.2
20260510014003 54 352 7.0 18.0 0.00 0.00 0.00 37 1014.6
20260510013003 54 350 12.0 23.0 0.00 0.00 0.00 35 1014.1
20260510012003 55 9 9.0 20.0 0.00 0.00 0.00 34 1013.6
20260510011003 55 17 7.0 15.0 0.00 0.00 0.00 34 1013.5
20260510010003 56 11 7.0 13.0 0.00 0.00 0.00 33 1013.2
20260510005003 56 345 6.0 13.0 0.00 0.00 0.00 32 1012.9
20260510004003 57 1 6.0 17.0 0.00 0.00 0.00 31 1012.8
20260510003003 58 337 9.0 21.0 0.00 0.00 0.00 31 1012.5
20260510002003 58 338 9.0 17.0 0.00 0.00 0.00 30 1012.5
20260510001003 59 17 6.0 18.0 0.00 0.00 0.00 31 1012.3
20260510000003 59 336 5.0 16.0 0.00 0.00 0.00 30 1011.9
20260509235003 59 317 6.0 16.0 0.00 0.00 0.00 30 1011.8
20260509234002 60 338 10.0 21.0 0.00 0.00 0.00 29 1011.4
20260509233003 60 18 5.0 16.0 0.00 0.00 0.00 29 1011.1
20260509232003 61 353 8.0 13.0 0.00 0.00 0.00 28 1011.3
20260509225003 59 310 9.0 21.0 0.00 0.00 0.00 30 1010.7
20260509224003 61 307 11.0 23.0 0.00 0.00 0.00 28 1010.6
20260509223003 60 310 5.0 16.0 0.00 0.00 0.00 30 1010.4
20260509222004 59 285 10.0 21.0 0.00 0.00 0.00 30 1010.4
20260509221003 60 303 7.0 15.0 0.00 0.00 0.00 31 1010.1
20260509220003 60 337 9.0 15.0 0.00 0.00 0.00 32 1010.0
20260509214003 61 323 7.0 18.0 0.00 0.00 0.00 32 1009.8
20260509213003 61 294 9.0 21.0 0.00 0.00 0.00 33 1009.5
20260509212003 60 291 12.0 25.0 0.00 0.00 0.00 33 1009.6
20260509211003 61 313 11.0 24.0 0.00 0.00 0.00 34 1009.6
20260509210004 60 332 11.0 23.0 0.00 0.00 0.00 33 1009.3
20260509205003 59 320 11.0 22.0 0.00 0.00 0.00 38 1009.3
20260509204003 59 302 10.0 21.0 0.00 0.00 0.00 38 1009.0
20260509203003 59 313 12.0 28.0 0.00 0.00 0.00 39 1009.0
20260509202003 59 332 12.0 21.0 0.00 0.00 0.00 39 1008.9
20260509200003 59 298 7.0 22.0 0.00 0.00 0.00 40 1008.6
20260509195003 60 297 13.0 26.0 0.00 0.00 0.00 41 1008.6
20260509194003 60 341 9.0 25.0 0.00 0.00 0.00 42 1008.5
20260509193003 60 308 9.0 25.0 0.00 0.00 0.00 42 1008.3
20260509191003 58 289 9.0 21.0 0.00 0.00 0.00 46 1008.4
20260509190003 59 287 13.0 20.0 0.00 0.00 0.00 45 1008.1
20260509184003 58 280 10.0 22.0 0.00 0.00 0.00 47 1008.1
20260509183003 60 282 6.0 26.0 0.00 0.00 0.00 48 1007.7
20260509181003 58 324 7.0 20.0 0.00 0.00 0.00 52 1007.7
20260509180003 57 254 7.0 25.0 0.00 0.00 0.00 53 1007.5
20260509175003 59 264 9.0 17.0 0.00 0.00 0.00 51 1007.7
20260509174003 57 308 9.0 17.0 0.00 0.00 0.00 55 1007.8
20260509173003 58 289 13.0 24.0 0.00 0.00 0.00 57 1007.5
20260509172003 57 232 9.0 26.0 0.00 0.00 0.00 57 1007.5
20260509171003 56 234 9.0 23.0 0.00 0.00 0.00 59 1007.6
20260509170003 55 302 9.0 23.0 0.00 0.00 0.00 61 1007.6
20260509165003 55 260 11.0 22.0 0.00 0.00 0.00 61 1007.4
20260509163003 54 297 10.0 21.0 0.00 0.00 0.00 61 1007.2
20260509161003 54 274 6.0 21.0 0.00 0.00 0.00 61 1007.4
20260509160003 53 297 12.0 20.0 0.00 0.00 0.00 62 1007.4
20260509155003 53 294 8.0 18.0 0.00 0.00 0.00 62 1007.0